This demonstration page uses our WeatherBlox Daily Observations layout. Learn more.

38.88101, -77.10428

Hourly Observations for March 31, 2020

Temp ( °F °C ) Dew Point ( °F °C ) Humidity (%) Winds ( mph kmh ) Pressure ( in mb ) Visibility ( mi km ) Precip ( " mm )
12:52 am 00:52 Mostly Cloudy 55 12.8 35 1.7 47 47 NNW 14 22 29.98 1015 10 16.0934 0 0
1:52 am 01:52 Partly Cloudy 52 11.1 37 2.8 57 57 N 13 20 29.98 1015 10 16.0934 0 0
2:52 am 02:52 Mostly Clear 52 11.1 36 2.2 55 55 NNW 13 20 29.97 1015 10 16.0934 0 0
3:52 am 03:52 Mostly Clear 51 10.6 36 2.2 56 56 NNW 15 24 29.97 1015 10 16.0934 0 0
4:52 am 04:52 Mostly Cloudy 51 10.6 37 2.8 59 59 NNW 8 13 29.96 1015 10 16.0934 0 0
5:52 am 05:52 Mostly Cloudy 52 11.1 37 2.8 57 57 NW 10 17 29.98 1015 10 16.0934 0 0
6:52 am 06:52 Cloudy 51 10.6 38 3.3 61 61 NNW 9 15 30 1016 10 16.0934 0 0
7:52 am 07:52 Cloudy 51 10.6 38 3.3 61 61 N 9 15 30.01 1016 10 16.0934 0 0
8:52 am 08:52 Cloudy 52 11.1 38 3.3 59 59 N 8 13 30.01 1016 10 16.0934 0 0
9:52 am 09:52 Cloudy 52 11.1 39 3.9 61 61 ENE 10 17 30.01 1016 10 16.0934 0 0
10:52 am 10:52 Cloudy 53 11.7 39 3.9 59 59 NE 7 11 29.98 1015 10 16.0934 0 0
11:52 am 11:52 Cloudy 55 12.8 39 3.9 55 55 NE 8 13 29.97 1015 10 16.0934 0 0
12:52 pm 12:52 Cloudy 55 12.8 39 3.9 55 55 NE 5 7 29.96 1014 10 16.0934 0 0
1:52 pm 13:52 Cloudy 55 12.8 38 3.3 53 53 E 7 11 29.93 1013 10 16.0934 0 0
2:52 pm 14:52 Cloudy 54 12.2 41 5 62 62 E 6 9 29.9 1013 10 16.0934 0 0
3:52 pm 15:52 Cloudy 54 12.2 41 5 62 62 E 14 22 29.88 1012 10 16.0934 0 0
4:52 pm 16:52 Cloudy 51 10.6 45 7.2 80 80 E 16 26 29.86 1011 10 16.0934 0 0
5:17 pm 17:17 Cloudy 50 10 45 7.2 83 83 E 14 22 29.86 1011 10 16.0934 0 0
5:52 pm 17:52 Cloudy with Light Rain 49 9.4 45 7.2 86 86 E 14 22 29.87 1011 7 11.26538 0.001 0.001
5:54 pm 17:54 Mostly Sunny 46 7.8 38 3.3 73 73 E 14 22 29.95 1014 N/A 0 0
6:08 pm 18:08 Cloudy with Light Rain 49 9.4 45 7.2 86 86 E 14 22 29.88 1012 9 14.48406 0.001 0.001
6:11 pm 18:11 Cloudy with Light Rain 48 8.9 45 7.2 89 89 ESE 13 20 29.88 1012 8 12.87472 0.001 0.001
6:21 pm 18:21 Cloudy with Light Rain 48 8.9 45 7.2 89 89 E 12 19 29.88 1012 5 8.0467 0.01 0.254
6:25 pm 18:25 Cloudy with Light Rain 48 8.9 45 7.2 89 89 E 10 17 29.88 1012 4 6.43736 0.01 0.254
6:52 pm 18:52 Cloudy 47 8.3 44 6.7 90 90 E 12 19 29.88 1012 8 12.87472 0.01 0.254
6:58 pm 18:58 Cloudy with Light Rain 47 8.3 44 6.7 90 90 E 9 15 29.88 1012 7 11.26538 0.001 0.001
7:01 pm 19:01 Cloudy with Light Rain 47 8.3 45 7.2 93 93 E 10 17 29.88 1012 7 11.26538 0.001 0.001
7:28 pm 19:28 Cloudy with Light Rain 47 8.3 44 6.7 90 90 ENE 13 20 29.87 1012 7 11.26538 0.01 0.254
7:31 pm 19:31 Cloudy with Light Rain 47 8.3 44 6.7 90 90 E 10 17 29.87 1012 7 11.26538 0.01 0.254
7:44 pm 19:44 Cloudy with Light Rain 46 7.8 44 6.7 93 93 ENE 9 15 29.89 1012 10 16.0934 0.01 0.254
7:52 pm 19:52 Cloudy with Light Rain 46 7.8 44 6.7 93 93 ENE 9 15 29.89 1012 8 12.87472 0.02 0.508
7:54 pm 19:54 Cloudy with Light Rain 46 7.8 43 6.1 89 89 E 7 11 29.9 1013 8 12.87472 0.01 0.254
8:15 pm 20:15 Cloudy with Light Rain 46 7.8 43 6.1 89 89 E 8 13 29.83 1010 6 9.65604 0.02 0.508
8:16 pm 20:16 Cloudy with Light Rain 46 7.8 43 6.1 89 89 E 8 13 29.89 1012 8 12.87472 0.04 1.016
8:33 pm 20:33 Cloudy with Light Rain 46 7.8 43 6.1 89 89 ENE 13 20 29.88 1012 9 14.48406 0.04 1.016
8:37 pm 20:37 Mostly Clear N/A N/A N/A ENE 13 20 N/A N/A 0 0
8:52 pm 20:52 Cloudy with Light Rain 46 7.8 43 6.1 89 89 ENE 12 19 29.88 1012 10 16.0934 0.05 1.27
9:01 pm 21:01 Cloudy with Light Rain 46 7.8 43 6.1 89 89 NE 9 15 29.89 1012 10 16.0934 0.001 0.001
9:45 pm 21:45 Cloudy with Light Rain 45 7 39 4 81 81 NE 9 15 29.92 1013 7 11.26538 0 0
9:52 pm 21:52 Cloudy with Light Rain 46 7.8 42 5.6 86 86 ENE 13 20 29.88 1012 10 16.0934 0.02 0.508
10:26 pm 22:26 Cloudy with Light Rain 45 7.2 42 5.6 90 90 ENE 14 22 29.87 1012 10 16.0934 0.001 0.001
10:31 pm 22:31 Cloudy with Light Rain 45 7.2 42 5.6 90 90 NE 12 19 29.87 1012 10 16.0934 0.001 0.001
10:52 pm 22:52 Cloudy with Light Rain 45 7.2 42 5.6 90 90 ENE 14 22 29.85 1011 10 16.0934 0.01 0.254
11:19 pm 23:19 Cloudy with Light Rain 45 7.2 41 5 86 86 ENE 14 22 29.85 1011 10 16.0934 0.001 0.001
11:37 pm 23:37 Cloudy with Light Rain 44 6.7 41 5 89 89 ENE 12 19 29.84 1011 10 16.0934 0.01 0.254
11:52 pm 23:52 Cloudy with Light Rain 44 6.7 40 4.4 85 85 ENE 14 22 29.83 1010 10 16.0934 0.01 0.254

Powered by AerisWeather